Weather History for KANW - January, 2014

Change the Weather History Date:

Tuesday, January 14, 2014

  Actual Average Record
Temperature  
Mean Temperature 32 °F -  
Max Temperature 41 °F 33 °F 69 °F (2006)
Min Temperature 23 °F 13 °F -4 °F (2005)
Degree Days  
Heating Degree Days 33    
Moisture  
Dew Point 20 °F    
Average Humidity 62    
Maximum Humidity 85    
Minimum Humidity 43    
Precipitation  
Precipitation 0.00 in - - ()
Sea Level Pressure  
Sea Level Pressure 30.12 in    
Wind  
Wind Speed 25 mph (NNW)    
Max Wind Speed 36 mph    
Max Gust Speed 48 mph    
Visibility 10 miles    
Events Snow    
Averages and records for this station are not official NWS values.
T = Trace of Precipitation, MM = Missing Value Source: NWS Daily Summary

Daily Weather History Graph

Daily Weather History Graph

Search for Another Location

Airport or City:

Trip Planner

Search our weather history database for the weather conditions in past years. The results will help you decide how hot, cold, wet, or windy it might be!

Date:

Astronomy

Jan. 14, 2014 Rise Set
Actual Time 8:07 AM CST 5:30 PM CST
Civil Twilight 7:36 AM CST 6:02 PM CST
Nautical Twilight 7:01 AM CST 6:37 PM CST
Astronomical Twilight 6:27 AM CST 7:10 PM CST
Moon 4:38 PM CST (1/14) 6:42 AM CST (1/14)
Length of Visible Light 10h 25m
Length of Day
9h 23m
Waxing Gibbous, 98% of the Moon is Illuminated
Jan 14
Waxing Gibbous
Jan 15
Full
Jan 23
Last Quarter
Jan 30
New
Feb 6
First Quarter

Hourly Weather History & Observations

Time (CST) Temp. Windchill Dew Point Humidity Pressure Visibility Wind Dir Wind Speed Gust Speed Precip Events Conditions
12:15 AM 41.2 °F 29.7 °F 29.7 °F 64% 29.80 in 10.0 mi NW 32.2 mph 48.3 mph N/A   Overcast
12:35 AM 40.1 °F 28.8 °F 29.8 °F 67% 29.80 in 10.0 mi NW 28.8 mph 39.1 mph N/A   Overcast
12:55 AM 38.7 °F 25.7 °F 29.3 °F 69% 29.82 in 10.0 mi NW 35.7 mph 43.7 mph N/A   Mostly Cloudy
1:15 AM 37.8 °F 25.0 °F 28.0 °F 68% 29.85 in 10.0 mi NNW 32.2 mph 43.7 mph N/A   Scattered Clouds
1:35 AM 37.6 °F 26.9 °F 28.2 °F 69% 29.87 in 10.0 mi NW 21.9 mph 39.1 mph N/A   Mostly Cloudy
1:55 AM 37.0 °F 25.4 °F 26.2 °F 65% 29.87 in 10.0 mi NW 25.3 mph 35.7 mph N/A   Scattered Clouds
2:15 AM 36.9 °F 25.1 °F 26.6 °F 66% 29.89 in 10.0 mi NW 25.3 mph 34.5 mph N/A   Scattered Clouds
2:35 AM 36.9 °F 24.9 °F 27.7 °F 69% 29.90 in 10.0 mi NW 26.5 mph 36.8 mph N/A   Overcast
2:55 AM 36.1 °F 23.3 °F 26.8 °F 69% 29.92 in 10.0 mi NW 29.9 mph 39.1 mph N/A   Mostly Cloudy
3:15 AM 35.6 °F 24.5 °F 27.1 °F 71% 29.92 in 10.0 mi NW 20.7 mph 31.1 mph N/A   Scattered Clouds
3:35 AM 35.2 °F 22.7 °F 26.6 °F 71% 29.94 in 10.0 mi NW 26.5 mph 35.7 mph N/A   Scattered Clouds
3:55 AM 34.2 °F 21.8 °F 25.0 °F 69% 29.95 in 10.0 mi NW 24.2 mph 39.1 mph N/A   Clear
4:15 AM 33.3 °F 19.1 °F 24.1 °F 69% 29.97 in 10.0 mi NW 31.1 mph 38.0 mph N/A   Clear
4:35 AM 32.4 °F 18.4 °F 21.0 °F 63% 29.99 in 10.0 mi NW 28.8 mph 36.8 mph N/A   Clear
4:55 AM 32.0 °F 18.6 °F 19.2 °F 59% 30.01 in 10.0 mi NW 25.3 mph 33.4 mph N/A   Clear
5:15 AM 32.0 °F 19.2 °F 20.1 °F 62% 30.01 in 10.0 mi NW 23.0 mph 35.7 mph N/A   Clear
5:35 AM 31.8 °F 17.9 °F 17.8 °F 56% 30.02 in 10.0 mi NW 27.6 mph 42.6 mph N/A   Clear
5:55 AM 31.1 °F 17.4 °F 16.9 °F 56% 30.03 in 10.0 mi NNW 25.3 mph 34.5 mph N/A   Clear
6:15 AM 30.6 °F 17.9 °F 18.3 °F 60% 30.04 in 10.0 mi NW 20.7 mph 31.1 mph N/A   Clear
6:35 AM 30.6 °F 17.3 °F 17.8 °F 59% 30.06 in 10.0 mi NW 23.0 mph 29.9 mph N/A   Clear
6:55 AM 30.0 °F 16.6 °F 15.6 °F 55% 30.07 in 10.0 mi NW 23.0 mph 29.9 mph N/A   Clear
7:15 AM 29.8 °F 16.0 °F 15.4 °F 55% 30.07 in 10.0 mi NW 24.2 mph 32.2 mph N/A   Clear
7:35 AM 30.0 °F 16.6 °F 15.3 °F 54% 30.07 in 10.0 mi NW 23.0 mph 32.2 mph N/A   Clear
7:55 AM 29.5 °F 16.8 °F 16.5 °F 59% 30.09 in 10.0 mi NW 19.6 mph 27.6 mph N/A   Clear
8:15 AM 29.5 °F 16.5 °F 15.4 °F 56% 30.09 in 10.0 mi NW 20.7 mph 25.3 mph N/A   Clear
8:35 AM 30.0 °F 18.3 °F 14.9 °F 53% 30.10 in 10.0 mi NW 17.3 mph 27.6 mph N/A   Scattered Clouds
8:55 AM 30.7 °F 17.2 °F 14.9 °F 52% 30.11 in 10.0 mi NW 24.2 mph 29.9 mph N/A   Scattered Clouds
9:15 AM 31.8 °F 18.7 °F 16.3 °F 53% 30.12 in 10.0 mi NW 24.2 mph 40.3 mph N/A   Scattered Clouds
9:35 AM 32.0 °F 18.1 °F 16.2 °F 52% 30.14 in 10.0 mi NW 27.6 mph 39.1 mph N/A   Scattered Clouds
9:55 AM 32.5 °F 18.4 °F 15.4 °F 49% 30.15 in 10.0 mi NW 29.9 mph 39.1 mph N/A   Clear
10:15 AM 33.1 °F 19.1 °F 16.5 °F 51% 30.16 in 10.0 mi NW 29.9 mph 40.3 mph N/A   Scattered Clouds
10:35 AM 33.3 °F 19.3 °F 17.8 °F 53% 30.17 in 10.0 mi NW 29.9 mph 36.8 mph N/A   Scattered Clouds
10:55 AM 33.4 °F 20.1 °F 17.6 °F 52% 30.17 in 10.0 mi NW 27.6 mph 35.7 mph N/A   Mostly Cloudy
11:15 AM 34.2 °F 20.1 °F 16.3 °F 48% 30.18 in 10.0 mi NNW 32.2 mph 40.3 mph N/A   Scattered Clouds
11:35 AM 34.3 °F 21.3 °F 14.0 °F 43% 30.18 in 10.0 mi NNW 27.6 mph 34.5 mph N/A   Scattered Clouds
11:55 AM 34.2 °F 19.9 °F 16.0 °F 47% 30.18 in 10.0 mi NNW 33.4 mph 41.4 mph N/A   Clear
12:15 PM 34.3 °F 21.0 °F 15.8 °F 47% 30.17 in 10.0 mi NNW 28.8 mph 41.4 mph N/A   Clear
12:35 PM 34.7 °F 22.5 °F 16.3 °F 47% 30.17 in 10.0 mi NNW 24.2 mph 36.8 mph N/A   Scattered Clouds
12:55 PM 34.9 °F 21.5 °F 16.5 °F 47% 30.17 in 10.0 mi NNW 29.9 mph 35.7 mph N/A   Scattered Clouds
1:15 PM 35.6 °F 22.3 °F 16.9 °F 47% 30.17 in 10.0 mi NNW 31.1 mph 39.1 mph N/A   Mostly Cloudy
1:35 PM 34.9 °F 20.9 °F 16.0 °F 46% 30.17 in 10.0 mi NW 33.4 mph 41.4 mph N/A   Mostly Cloudy
1:55 PM 34.9 °F 21.1 °F 16.9 °F 48% 30.18 in 10.0 mi NNW 32.2 mph 36.8 mph N/A   Scattered Clouds
2:15 PM 35.4 °F 23.2 °F 17.2 °F 48% 30.18 in 10.0 mi NNW 25.3 mph 38.0 mph N/A   Mostly Cloudy
2:35 PM 35.6 °F 23.0 °F 16.7 °F 46% 30.18 in 10.0 mi NNW 27.6 mph 36.8 mph N/A   Scattered Clouds
2:55 PM 34.3 °F 21.0 °F 18.0 °F 51% 30.19 in 10.0 mi NNW 28.8 mph 36.8 mph N/A   Mostly Cloudy
3:15 PM 33.1 °F 20.3 °F 18.5 °F 55% 30.20 in 10.0 mi NNW 24.2 mph 33.4 mph N/A   Mostly Cloudy
3:35 PM 33.1 °F 20.1 °F 19.2 °F 57% 30.20 in 10.0 mi NNW 25.3 mph 36.8 mph N/A   Overcast
3:55 PM 32.2 °F 19.4 °F 19.2 °F 59% 30.21 in 10.0 mi NNW 23.0 mph 31.1 mph N/A   Overcast
4:15 PM 32.2 °F 19.1 °F 19.4 °F 59% 30.22 in 10.0 mi NNW 24.2 mph 31.1 mph N/A   Overcast
4:35 PM 32.0 °F 19.5 °F 19.8 °F 61% 30.22 in 10.0 mi NNW 21.9 mph 28.8 mph N/A   Overcast
4:55 PM 32.0 °F 19.8 °F 20.1 °F 62% 30.22 in 10.0 mi NNW 20.7 mph 26.5 mph N/A   Mostly Cloudy
5:15 PM 29.7 °F 16.4 °F 22.5 °F 75% 30.23 in 2.0 mi NNW 21.9 mph 34.5 mph N/A Snow Light Snow
5:35 PM 29.3 °F 16.6 °F 23.0 °F 77% 30.23 in 10.0 mi NNW 19.6 mph 25.3 mph N/A   Overcast
5:55 PM 29.3 °F 17.7 °F 23.4 °F 78% 30.24 in 10.0 mi NNW 16.1 mph 21.9 mph N/A   Overcast
6:15 PM 29.3 °F 19.1 °F 22.5 °F 76% 30.24 in 10.0 mi NW 12.7 mph - N/A   Overcast
6:35 PM 29.5 °F 19.3 °F 22.3 °F 75% 30.23 in 10.0 mi NW 12.7 mph - N/A   Overcast
6:55 PM 30.2 °F 20.2 °F 21.9 °F 71% 30.23 in 10.0 mi NW 12.7 mph - N/A   Overcast
7:15 PM 30.6 °F 19.0 °F 20.8 °F 67% 30.24 in 10.0 mi NNW 17.3 mph 24.2 mph N/A   Overcast
7:35 PM 30.6 °F 19.0 °F 19.9 °F 65% 30.23 in 10.0 mi NW 17.3 mph 24.2 mph N/A   Overcast
7:55 PM 30.6 °F 20.7 °F 19.8 °F 64% 30.23 in 10.0 mi NW 12.7 mph 25.3 mph N/A   Overcast
8:15 PM 30.2 °F 18.9 °F 20.1 °F 66% 30.23 in 10.0 mi NW 16.1 mph - N/A   Overcast
8:35 PM 30.2 °F 19.8 °F 20.3 °F 67% 30.23 in 10.0 mi NW 13.8 mph - N/A   Overcast
8:55 PM 30.2 °F 20.8 °F 21.0 °F 69% 30.23 in 10.0 mi NNW 11.5 mph - N/A   Mostly Cloudy
9:15 PM 30.6 °F 19.8 °F 21.0 °F 68% 30.22 in 10.0 mi NNW 15.0 mph 18.4 mph N/A   Overcast
9:35 PM 30.7 °F 20.9 °F 21.0 °F 67% 30.22 in 10.0 mi NW 12.7 mph 24.2 mph N/A   Overcast
9:55 PM 30.6 °F 21.8 °F 21.2 °F 68% 30.22 in 10.0 mi NNW 10.4 mph - N/A   Overcast
10:15 PM 29.5 °F 21.8 °F 21.6 °F 72% 30.22 in 10.0 mi North 8.1 mph - N/A   Overcast
10:35 PM 27.7 °F 20.4 °F 21.0 °F 76% 30.22 in 10.0 mi North 6.9 mph - N/A   Overcast
10:55 PM 26.1 °F 19.4 °F 20.1 °F 78% 30.23 in 10.0 mi North 5.8 mph - N/A   Mostly Cloudy
11:15 PM 23.7 °F 16.6 °F 19.0 °F 82% 30.23 in 10.0 mi NNW 5.8 mph - N/A   Scattered Clouds
11:35 PM 23.0 °F 15.8 °F 18.9 °F 84% 30.22 in 10.0 mi North 5.8 mph - N/A   Scattered Clouds
11:55 PM 23.4 °F - 19.6 °F 85% 30.22 in 10.0 mi Calm Calm - N/A   Overcast